Time,TemperatureF,DewpointF,PressureIn,WindDirection,WindDirectionDegrees,WindSpeedMPH,WindSpeedGustMPH,Humidity,HourlyPrecipIn,Conditions,Clouds,dailyrainin,SolarRadiationWatts/m^2,SoftwareType,DateUTC
2013-03-16 00:00:00,33.8,32.3,29.33,SSE,168,2.0,5.0,94,0.00,RA,,0.00,0.0,WeatherDisplay:10.37,2013-03-16 00:00:00,
2013-03-16 00:10:00,34.1,32.8,29.33,SSE,168,1.0,4.0,95,0.00,CLR,,0.00,0.0,WeatherDisplay:10.37,2013-03-16 00:10:00,
2013-03-16 00:15:00,34.2,32.6,29.33,SSE,168,1.0,4.0,94,0.00,CLR,,0.00,0.0,WeatherDisplay:10.37,2013-03-16 00:15:00,
2013-03-16 00:20:00,34.1,32.6,29.33,SSE,168,0.0,2.0,94,0.00,CLR,,0.00,0.0,WeatherDisplay:10.37,2013-03-16 00:20:00,
2013-03-16 00:30:00,33.9,32.4,29.32,SSE,168,0.0,0.0,94,0.00,CLR,,0.00,0.0,WeatherDisplay:10.37,2013-03-16 00:30:00,
2013-03-16 00:40:00,33.6,32.1,29.32,SSE,168,1.0,2.0,94,0.00,CLR,,0.00,0.0,WeatherDisplay:10.37,2013-03-16 00:40:00,
2013-03-16 00:45:00,33.5,31.9,29.32,SSE,168,0.0,2.0,94,0.00,CLR,,0.00,0.0,WeatherDisplay:10.37,2013-03-16 00:45:00,
2013-03-16 00:50:00,33.3,31.8,29.32,SSE,168,0.0,2.0,94,0.00,CLR,,0.00,0.0,WeatherDisplay:10.37,2013-03-16 00:50:00,
2013-03-16 01:00:00,32.9,31.4,29.31,SSE,168,1.0,2.0,94,0.00,CLR,,0.00,0.0,WeatherDisplay:10.37,2013-03-16 01:00:00,
2013-03-16 01:10:00,32.9,31.4,29.31,SSE,168,0.0,1.0,94,0.00,CLR,,0.00,0.0,WeatherDisplay:10.37,2013-03-16 01:10:00,
2013-03-16 01:15:00,32.8,31.3,29.31,SSE,168,0.0,0.0,94,0.00,CLR,,0.00,0.0,WeatherDisplay:10.37,2013-03-16 01:15:00,
2013-03-16 01:20:00,32.6,31.1,29.31,SSE,168,2.0,4.0,94,0.00,CLR,,0.00,0.0,WeatherDisplay:10.37,2013-03-16 01:20:00,
2013-03-16 01:35:00,32.6,31.1,29.30,SSE,168,1.0,2.0,94,0.00,CLR,,0.00,0.0,WeatherDisplay:10.37,2013-03-16 01:35:00,
2013-03-16 01:40:00,32.5,31.0,29.30,SSE,168,1.0,2.0,94,0.00,CLR,,0.00,0.0,WeatherDisplay:10.37,2013-03-16 01:40:00,
2013-03-16 01:45:00,32.3,30.8,29.30,SSE,168,1.0,2.0,94,0.00,CLR,,0.00,0.0,WeatherDisplay:10.37,2013-03-16 01:45:00,
2013-03-16 01:50:00,32.2,30.7,29.30,SSE,168,1.0,2.0,94,0.00,CLR,,0.00,0.0,WeatherDisplay:10.37,2013-03-16 01:50:00,
2013-03-16 01:55:00,32.2,30.7,29.30,SSE,168,1.0,2.0,94,0.00,CLR,,0.00,0.0,WeatherDisplay:10.37,2013-03-16 01:55:00,
2013-03-16 02:00:00,32.2,30.7,29.30,SSE,168,1.0,2.0,94,0.00,CLR,,0.00,0.0,WeatherDisplay:10.37,2013-03-16 02:00:00,
2013-03-16 02:10:00,32.3,31.0,29.30,SSE,168,1.0,2.0,95,0.00,CLR,,0.00,0.0,WeatherDisplay:10.37,2013-03-16 02:10:00,
2013-03-16 02:15:00,32.3,31.0,29.30,SSE,168,0.0,0.0,95,0.00,CLR,,0.00,0.0,WeatherDisplay:10.37,2013-03-16 02:15:00,
2013-03-16 02:20:00,32.1,30.6,29.30,SSE,168,0.0,0.0,94,0.00,CLR,,0.00,0.0,WeatherDisplay:10.37,2013-03-16 02:20:00,
2013-03-16 02:30:00,31.3,29.5,29.30,SSE,168,0.0,0.0,93,0.00,CLR,,0.00,0.0,WeatherDisplay:10.37,2013-03-16 02:30:00,
2013-03-16 02:40:00,30.6,28.8,29.30,SSE,168,0.0,0.0,93,0.00,CLR,,0.00,0.0,WeatherDisplay:10.37,2013-03-16 02:40:00,
2013-03-16 02:45:00,30.4,28.9,29.30,SSE,168,0.0,0.0,94,0.00,CLR,,0.00,0.0,WeatherDisplay:10.37,2013-03-16 02:45:00,
2013-03-16 02:50:00,30.2,28.7,29.30,SSE,168,0.0,0.0,94,0.00,CLR,,0.00,0.0,WeatherDisplay:10.37,2013-03-16 02:50:00,
2013-03-16 03:00:00,29.7,28.2,29.30,SSE,168,0.0,0.0,94,0.00,CLR,,0.00,0.0,WeatherDisplay:10.37,2013-03-16 03:00:00,
2013-03-16 03:10:00,29.6,28.1,29.30,SSE,168,0.0,0.0,94,0.00,CLR,,0.00,0.0,WeatherDisplay:10.37,2013-03-16 03:10:00,
2013-03-16 03:15:00,29.7,28.5,29.30,SSE,168,1.0,2.0,95,0.00,CLR,,0.00,0.0,WeatherDisplay:10.37,2013-03-16 03:15:00,
2013-03-16 03:20:00,30.0,28.7,29.29,SSE,168,0.0,2.0,95,0.00,CLR,,0.00,0.0,WeatherDisplay:10.37,2013-03-16 03:20:00,
2013-03-16 03:25:00,30.1,28.8,29.30,SSE,168,1.0,2.0,95,0.00,CLR,,0.00,0.0,WeatherDisplay:10.37,2013-03-16 03:25:00,
2013-03-16 03:30:00,30.2,28.9,29.30,SSE,168,1.0,4.0,95,0.00,CLR,,0.00,0.0,WeatherDisplay:10.37,2013-03-16 03:30:00,
2013-03-16 03:40:00,30.4,29.1,29.29,SSE,168,0.0,1.0,95,0.00,CLR,,0.00,0.0,WeatherDisplay:10.37,2013-03-16 03:40:00,
2013-03-16 03:45:00,30.4,29.1,29.29,SSE,168,0.0,0.0,95,0.00,CLR,,0.00,0.0,WeatherDisplay:10.37,2013-03-16 03:45:00,
2013-03-16 03:50:00,30.3,29.0,29.29,SSE,168,0.0,0.0,95,0.00,CLR,,0.00,0.0,WeatherDisplay:10.37,2013-03-16 03:50:00,
2013-03-16 03:55:00,30.2,28.9,29.29,SSE,168,0.0,0.0,95,0.00,CLR,,0.00,0.0,WeatherDisplay:10.37,2013-03-16 03:55:00,
2013-03-16 04:00:00,30.0,28.5,29.29,SSE,168,0.0,0.0,94,0.00,CLR,,0.00,0.0,WeatherDisplay:10.37,2013-03-16 04:00:00,
2013-03-16 04:05:00,29.8,28.3,29.29,SSE,168,0.0,0.0,94,0.00,CLR,,0.00,0.0,WeatherDisplay:10.37,2013-03-16 04:05:00,
2013-03-16 04:10:00,29.6,28.1,29.29,SSE,168,0.0,2.0,94,0.00,CLR,,0.00,0.0,WeatherDisplay:10.37,2013-03-16 04:10:00,
2013-03-16 04:15:00,29.5,28.2,29.29,SSE,168,1.0,2.0,95,0.00,CLR,,0.00,0.0,WeatherDisplay:10.37,2013-03-16 04:15:00,
2013-03-16 04:20:00,29.7,28.4,29.29,SSE,168,1.0,4.0,95,0.00,CLR,,0.00,0.0,WeatherDisplay:10.37,2013-03-16 04:20:00,
2013-03-16 04:25:00,29.9,28.7,29.30,SSE,168,3.0,6.0,95,0.00,CLR,,0.00,0.0,WeatherDisplay:10.37,2013-03-16 04:25:00,
2013-03-16 04:30:00,30.2,29.0,29.30,SSE,168,2.0,6.0,95,0.00,CLR,,0.00,0.0,WeatherDisplay:10.37,2013-03-16 04:30:00,
2013-03-16 04:40:00,30.7,29.4,29.30,SSE,168,2.0,6.0,95,0.00,CLR,,0.00,0.0,WeatherDisplay:10.37,2013-03-16 04:40:00,
2013-03-16 04:45:00,30.9,29.6,29.30,SSE,168,1.0,6.0,95,0.00,CLR,,0.00,0.0,WeatherDisplay:10.37,2013-03-16 04:45:00,
2013-03-16 04:50:00,31.0,29.7,29.30,SSE,168,2.0,5.0,95,0.00,CLR,,0.00,0.0,WeatherDisplay:10.37,2013-03-16 04:50:00,
2013-03-16 05:00:00,31.3,30.0,29.30,SSE,168,3.0,5.0,95,0.00,CLR,,0.00,0.0,WeatherDisplay:10.37,2013-03-16 05:00:00,
2013-03-16 05:10:00,31.5,30.2,29.30,SSE,168,2.0,6.0,95,0.00,CLR,,0.00,0.0,WeatherDisplay:10.37,2013-03-16 05:10:00,
2013-03-16 05:15:00,31.6,30.3,29.30,SSE,168,3.0,6.0,95,0.00,CLR,,0.00,0.0,WeatherDisplay:10.37,2013-03-16 05:15:00,
2013-03-16 05:20:00,31.7,30.4,29.30,SW,223,3.0,7.0,95,0.00,CLR,,0.00,0.0,WeatherDisplay:10.37,2013-03-16 05:20:00,
2013-03-16 05:30:00,31.8,30.8,29.30,West,274,3.0,5.0,96,0.00,CLR,,0.00,0.0,WeatherDisplay:10.37,2013-03-16 05:30:00,
2013-03-16 05:40:00,32.0,31.0,29.30,WNW,287,2.0,4.0,96,0.00,CLR,,0.00,0.0,WeatherDisplay:10.37,2013-03-16 05:40:00,
2013-03-16 05:45:00,32.0,31.0,29.30,WNW,287,3.0,6.0,96,0.00,CLR,,0.00,0.0,WeatherDisplay:10.37,2013-03-16 05:45:00,
2013-03-16 05:50:00,32.0,31.0,29.30,WNW,287,1.0,5.0,96,0.00,CLR,,0.00,0.0,WeatherDisplay:10.37,2013-03-16 05:50:00,
2013-03-16 05:55:00,32.0,31.0,29.30,WNW,287,2.0,5.0,96,0.00,CLR,,0.00,0.0,WeatherDisplay:10.37,2013-03-16 05:55:00,
2013-03-16 06:05:00,32.0,31.0,29.30,WNW,287,1.0,3.0,96,0.00,CLR,,0.00,0.0,WeatherDisplay:10.37,2013-03-16 06:05:00,
2013-03-16 06:10:00,32.0,31.0,29.30,WNW,287,1.0,3.0,96,0.00,CLR,,0.00,0.0,WeatherDisplay:10.37,2013-03-16 06:10:00,
2013-03-16 06:15:00,32.0,31.0,29.30,WNW,287,2.0,3.0,96,0.00,CLR,,0.00,0.0,WeatherDisplay:10.37,2013-03-16 06:15:00,
2013-03-16 06:20:00,32.0,31.0,29.30,WNW,287,3.0,4.0,96,0.00,OVC,,0.00,0.0,WeatherDisplay:10.37,2013-03-16 06:20:00,
2013-03-16 06:30:00,32.1,31.1,29.30,WNW,287,2.0,4.0,96,0.00,OVC,,0.00,0.0,WeatherDisplay:10.37,2013-03-16 06:30:00,
2013-03-16 06:40:00,32.2,31.2,29.30,WNW,287,1.0,4.0,96,0.00,OVC,,0.00,0.0,WeatherDisplay:10.37,2013-03-16 06:40:00,
2013-03-16 06:45:00,32.2,31.2,29.30,WNW,287,1.0,3.0,96,0.00,OVC,,0.00,0.0,WeatherDisplay:10.37,2013-03-16 06:45:00,
2013-03-16 06:50:00,32.1,31.1,29.30,WNW,287,1.0,4.0,96,0.00,OVC,,0.00,0.0,WeatherDisplay:10.37,2013-03-16 06:50:00,
2013-03-16 07:00:00,32.0,31.0,29.31,WNW,287,1.0,3.0,96,0.00,SCT,,0.00,7.0,WeatherDisplay:10.37,2013-03-16 07:00:00,
2013-03-16 07:10:00,31.8,30.8,29.31,WNW,287,1.0,3.0,96,0.00,SCT,,0.00,14.0,WeatherDisplay:10.37,2013-03-16 07:10:00,
2013-03-16 07:15:00,31.8,30.5,29.31,WNW,287,2.0,3.0,95,0.00,BKN,,0.00,16.0,WeatherDisplay:10.37,2013-03-16 07:15:00,
2013-03-16 07:20:00,31.8,30.5,29.31,WNW,287,1.0,4.0,95,0.00,BKN,,0.00,18.0,WeatherDisplay:10.37,2013-03-16 07:20:00,
2013-03-16 07:30:00,31.8,30.8,29.30,WNW,287,1.0,4.0,96,0.00,BKN,,0.00,25.0,WeatherDisplay:10.37,2013-03-16 07:30:00,
2013-03-16 07:40:00,31.9,30.9,29.31,WNW,287,2.0,4.0,96,0.00,BKN,,0.00,30.0,WeatherDisplay:10.37,2013-03-16 07:40:00,
2013-03-16 07:45:00,31.9,30.9,29.31,WNW,287,2.0,5.0,96,0.00,SCT,,0.00,53.0,WeatherDisplay:10.37,2013-03-16 07:45:00,
2013-03-16 07:50:00,31.9,30.9,29.30,WNW,287,3.0,5.0,96,0.00,SCT,,0.00,58.0,WeatherDisplay:10.37,2013-03-16 07:50:00,
2013-03-16 08:00:00,32.0,31.0,29.30,WNW,287,2.0,5.0,96,0.00,SCT,,0.00,49.0,WeatherDisplay:10.37,2013-03-16 08:00:00,
2013-03-16 08:10:00,32.0,31.0,29.31,WNW,287,2.0,5.0,96,0.00,BKN,,0.00,63.0,WeatherDisplay:10.37,2013-03-16 08:10:00,
2013-03-16 08:15:00,32.0,31.0,29.31,WNW,287,3.0,6.0,96,0.00,BKN,,0.00,109.0,WeatherDisplay:10.37,2013-03-16 08:15:00,
2013-03-16 08:20:00,32.1,31.1,29.31,WNW,287,1.0,5.0,96,0.00,SCT,,0.00,113.0,WeatherDisplay:10.37,2013-03-16 08:20:00,
2013-03-16 08:30:00,32.4,31.4,29.31,WNW,287,3.0,6.0,96,0.00,FEW,,0.00,146.0,WeatherDisplay:10.37,2013-03-16 08:30:00,
2013-03-16 08:40:00,32.5,31.5,29.31,WNW,287,3.0,5.0,96,0.00,FEW,,0.00,158.0,WeatherDisplay:10.37,2013-03-16 08:40:00,
2013-03-16 08:45:00,32.7,31.7,29.31,WNW,287,3.0,4.0,96,0.00,CLR,,0.00,176.0,WeatherDisplay:10.37,2013-03-16 08:45:00,
2013-03-16 08:50:00,32.9,31.9,29.31,WNW,287,3.0,6.0,96,0.00,FEW,,0.00,130.0,WeatherDisplay:10.37,2013-03-16 08:50:00,
2013-03-16 09:00:00,33.1,32.1,29.31,WNW,290,3.0,6.0,96,0.00,SCT,,0.00,186.0,WeatherDisplay:10.37,2013-03-16 09:00:00,
2013-03-16 09:10:00,33.7,32.7,29.31,WNW,291,3.0,8.0,96,0.00,SCT,,0.00,114.0,WeatherDisplay:10.37,2013-03-16 09:10:00,
2013-03-16 09:15:00,33.7,32.7,29.31,WNW,295,3.0,6.0,96,0.00,BKN,,0.00,155.0,WeatherDisplay:10.37,2013-03-16 09:15:00,
2013-03-16 09:20:00,33.9,32.8,29.32,WNW,300,3.0,6.0,96,0.00,SCT,,0.00,148.0,WeatherDisplay:10.37,2013-03-16 09:20:00,
2013-03-16 09:30:00,34.4,33.4,29.32,NNW,330,3.0,7.0,96,0.00,SCT,,0.00,171.0,WeatherDisplay:10.37,2013-03-16 09:30:00,
2013-03-16 09:40:00,34.9,33.9,29.32,NNW,340,2.0,6.0,96,0.00,SCT,,0.00,192.0,WeatherDisplay:10.37,2013-03-16 09:40:00,
2013-03-16 09:45:00,35.2,34.4,29.32,NNW,340,2.0,5.0,97,0.00,SCT,,0.00,186.0,WeatherDisplay:10.37,2013-03-16 09:45:00,
2013-03-16 09:50:00,35.4,34.6,29.32,NNW,340,3.0,5.0,97,0.00,SCT,,0.00,243.0,WeatherDisplay:10.37,2013-03-16 09:50:00,
2013-03-16 10:00:00,36.3,35.5,29.32,NNW,333,5.0,8.0,97,0.00,FEW,,0.00,272.0,WeatherDisplay:10.37,2013-03-16 10:00:00,
2013-03-16 10:10:00,36.5,35.5,29.32,NNW,331,3.0,6.0,96,0.00,FEW,,0.00,339.0,WeatherDisplay:10.37,2013-03-16 10:10:00,
2013-03-16 10:20:00,36.3,35.3,29.32,NNW,343,3.0,8.0,96,0.00,SCT,,0.00,178.0,WeatherDisplay:10.37,2013-03-16 10:20:00,
2013-03-16 10:30:00,36.5,35.5,29.33,NNW,346,3.0,6.0,96,0.00,SCT,,0.00,223.0,WeatherDisplay:10.37,2013-03-16 10:30:00,
2013-03-16 10:40:00,36.7,35.7,29.33,NW,324,2.0,5.0,96,0.00,BKN,,0.00,199.0,WeatherDisplay:10.37,2013-03-16 10:40:00,
2013-03-16 10:45:00,36.9,35.9,29.33,NW,324,1.0,5.0,96,0.00,BKN,,0.00,295.0,WeatherDisplay:10.37,2013-03-16 10:45:00,
2013-03-16 10:50:00,37.1,36.3,29.33,NW,325,3.0,5.0,97,0.00,BKN,,0.00,171.0,WeatherDisplay:10.37,2013-03-16 10:50:00,
2013-03-16 11:00:00,37.7,36.9,29.33,NNW,327,5.0,6.0,97,0.00,FEW,,0.00,274.0,WeatherDisplay:10.37,2013-03-16 11:00:00,
2013-03-16 11:10:00,37.6,36.6,29.34,NNW,340,3.0,6.0,96,0.00,SCT,,0.00,193.0,WeatherDisplay:10.37,2013-03-16 11:10:00,
2013-03-16 11:15:00,37.5,36.5,29.34,NNW,335,5.0,8.0,96,0.00,BKN,,0.00,294.0,WeatherDisplay:10.37,2013-03-16 11:15:00,
2013-03-16 11:20:00,37.6,36.6,29.34,NNW,337,6.0,7.0,96,0.00,BKN,,0.00,292.0,WeatherDisplay:10.37,2013-03-16 11:20:00,
2013-03-16 11:30:00,37.5,36.5,29.34,North,349,5.0,7.0,96,0.00,BKN,,0.00,207.0,WeatherDisplay:10.37,2013-03-16 11:30:00,
2013-03-16 11:40:00,37.8,36.8,29.34,NNW,328,5.0,7.0,96,0.00,SCT,,0.00,221.0,WeatherDisplay:10.37,2013-03-16 11:40:00,
2013-03-16 11:45:00,38.0,37.0,29.34,NW,326,3.0,7.0,96,0.00,SCT,,0.00,248.0,WeatherDisplay:10.37,2013-03-16 11:45:00,
2013-03-16 11:50:00,38.2,37.1,29.34,NW,326,3.0,6.0,96,0.00,SCT,,0.00,315.0,WeatherDisplay:10.37,2013-03-16 11:50:00,
2013-03-16 12:00:00,38.9,37.9,29.34,NNW,344,5.0,7.0,96,0.00,FEW,,0.00,313.0,WeatherDisplay:10.37,2013-03-16 12:00:00,
2013-03-16 12:10:00,40.0,39.2,29.34,NNW,345,2.0,5.0,97,0.00,CLR,,0.00,684.0,WeatherDisplay:10.37,2013-03-16 12:10:00,
2013-03-16 12:15:00,40.3,39.2,29.34,NNW,338,5.0,7.0,96,0.00,CLR,,0.00,292.0,WeatherDisplay:10.37,2013-03-16 12:15:00,
2013-03-16 12:20:00,40.3,39.3,29.34,NNW,330,3.0,8.0,96,0.00,SCT,,0.00,279.0,WeatherDisplay:10.37,2013-03-16 12:20:00,
2013-03-16 12:30:00,41.0,40.0,29.34,NNW,335,5.0,7.0,96,0.00,CLR,,0.00,657.0,WeatherDisplay:10.37,2013-03-16 12:30:00,
2013-03-16 12:40:00,42.1,40.8,29.34,NW,311,3.0,7.0,95,0.00,CLR,,0.00,557.0,WeatherDisplay:10.37,2013-03-16 12:40:00,
2013-03-16 12:45:00,42.3,40.7,29.34,NW,317,3.0,7.0,94,0.00,CLR,,0.00,555.0,WeatherDisplay:10.37,2013-03-16 12:45:00,
2013-03-16 12:50:00,42.4,40.5,29.34,NW,325,3.0,6.0,93,0.00,CLR,,0.00,584.0,WeatherDisplay:10.37,2013-03-16 12:50:00,
2013-03-16 13:00:00,42.9,40.4,29.34,NNW,347,3.0,8.0,91,0.00,CLR,,0.00,749.0,WeatherDisplay:10.37,2013-03-16 13:00:00,
2013-03-16 13:10:00,43.4,39.2,29.34,North,0,5.0,6.0,85,0.00,FEW,,0.00,257.0,WeatherDisplay:10.37,2013-03-16 13:10:00,
2013-03-16 13:15:00,43.3,38.8,29.34,North,359,5.0,8.0,84,0.00,BKN,,0.00,200.0,WeatherDisplay:10.37,2013-03-16 13:15:00,
2013-03-16 13:20:00,43.2,38.7,29.34,North,359,3.0,9.0,84,0.00,SCT,,0.00,661.0,WeatherDisplay:10.37,2013-03-16 13:20:00,
2013-03-16 13:30:00,44.2,39.9,29.34,NNW,338,2.0,7.0,85,0.00,CLR,,0.00,773.0,WeatherDisplay:10.37,2013-03-16 13:30:00,
2013-03-16 13:40:00,45.1,37.0,29.34,North,352,6.0,9.0,73,0.00,CLR,,0.00,274.0,WeatherDisplay:10.37,2013-03-16 13:40:00,
2013-03-16 13:45:00,44.9,37.8,29.34,NNW,343,6.0,12.0,76,0.00,SCT,,0.00,221.0,WeatherDisplay:10.37,2013-03-16 13:45:00,
2013-03-16 13:50:00,44.6,37.8,29.34,NNW,341,5.0,9.0,77,0.00,BKN,,0.00,243.0,WeatherDisplay:10.37,2013-03-16 13:50:00,
2013-03-16 14:00:00,45.2,38.1,29.34,NNW,334,6.0,9.0,76,0.00,CLR,,0.00,446.0,WeatherDisplay:10.37,2013-03-16 14:00:00,
2013-03-16 14:10:00,45.1,36.2,29.34,North,349,7.0,10.0,71,0.00,SCT,,0.00,185.0,WeatherDisplay:10.37,2013-03-16 14:10:00,
2013-03-16 14:15:00,44.7,35.9,29.34,North,354,5.0,8.0,71,0.00,BKN,,0.00,171.0,WeatherDisplay:10.37,2013-03-16 14:15:00,
2013-03-16 14:20:00,44.5,35.7,29.34,North,352,5.0,9.0,71,0.00,BKN,,0.00,176.0,WeatherDisplay:10.37,2013-03-16 14:20:00,
2013-03-16 14:30:00,44.3,36.2,29.34,NNW,336,5.0,8.0,73,0.00,BKN,,0.00,329.0,WeatherDisplay:10.37,2013-03-16 14:30:00,
2013-03-16 14:40:00,44.2,36.1,29.34,North,3,2.0,4.0,73,0.00,BKN,,0.00,135.0,WeatherDisplay:10.37,2013-03-16 14:40:00,
2013-03-16 14:45:00,44.3,36.5,29.34,NNW,347,5.0,7.0,74,0.00,BKN,,0.00,148.0,WeatherDisplay:10.37,2013-03-16 14:45:00,
2013-03-16 14:50:00,44.4,37.0,29.34,NNW,333,3.0,6.0,75,0.00,SCT,,0.00,596.0,WeatherDisplay:10.37,2013-03-16 14:50:00,
2013-03-16 15:00:00,45.5,37.0,29.34,NW,318,3.0,9.0,72,0.00,FEW,,0.00,193.0,WeatherDisplay:10.37,2013-03-16 15:00:00,
2013-03-16 15:10:00,46.8,36.8,29.34,NNW,331,1.0,9.0,68,0.00,CLR,,0.00,522.0,WeatherDisplay:10.37,2013-03-16 15:10:00,
2013-03-16 15:15:00,46.7,36.0,29.34,NNW,345,6.0,10.0,66,0.00,FEW,,0.00,114.0,WeatherDisplay:10.37,2013-03-16 15:15:00,
2013-03-16 15:20:00,46.0,35.7,29.34,NNW,344,7.0,10.0,67,0.00,BKN,,0.00,127.0,WeatherDisplay:10.37,2013-03-16 15:20:00,
2013-03-16 15:31:00,44.7,35.5,29.35,NW,326,5.0,10.0,70,0.00,BKN,,0.00,313.0,WeatherDisplay:10.37,2013-03-16 15:31:00,
2013-03-16 15:41:00,45.0,35.8,29.34,NW,323,5.0,8.0,70,0.00,CLR,,0.00,468.0,WeatherDisplay:10.37,2013-03-16 15:41:00,
2013-03-16 15:50:00,45.8,35.1,29.34,NW,322,3.0,9.0,66,0.00,CLR,,0.00,190.0,WeatherDisplay:10.37,2013-03-16 15:50:00,
2013-03-16 16:01:00,45.5,35.5,29.35,NW,321,5.0,7.0,68,0.00,BKN,,0.00,216.0,WeatherDisplay:10.37,2013-03-16 16:01:00,
2013-03-16 16:11:00,46.2,36.6,29.35,NNW,341,6.0,9.0,69,0.00,CLR,,0.00,420.0,WeatherDisplay:10.37,2013-03-16 16:11:00,
2013-03-16 16:16:00,46.3,36.3,29.34,North,351,6.0,10.0,68,0.00,CLR,,0.00,151.0,WeatherDisplay:10.37,2013-03-16 16:16:00,
2013-03-16 16:25:00,46.1,35.0,29.35,NNW,332,7.0,13.0,65,0.00,CLR,,0.00,281.0,WeatherDisplay:10.37,2013-03-16 16:25:00,
2013-03-16 16:31:00,46.1,34.6,29.35,NW,317,6.0,12.0,64,0.00,CLR,,0.00,292.0,WeatherDisplay:10.37,2013-03-16 16:31:00,
2013-03-16 16:41:00,46.3,34.4,29.35,NW,319,7.0,12.0,63,0.00,CLR,,0.00,258.0,WeatherDisplay:10.37,2013-03-16 16:41:00,
2013-03-16 16:51:00,45.7,32.6,29.35,NNW,327,5.0,10.0,60,0.00,SCT,,0.00,123.0,WeatherDisplay:10.37,2013-03-16 16:51:00,
2013-03-16 17:01:00,45.0,32.3,29.35,NNW,330,6.0,12.0,61,0.00,SCT,,0.00,160.0,WeatherDisplay:10.37,2013-03-16 17:01:00,
2013-03-16 17:11:00,45.0,32.3,29.36,NNW,336,6.0,12.0,61,0.00,CLR,,0.00,100.0,WeatherDisplay:10.37,2013-03-16 17:11:00,
2013-03-16 17:16:00,44.8,33.4,29.36,NNW,331,7.0,15.0,64,0.00,SCT,,0.00,84.0,WeatherDisplay:10.37,2013-03-16 17:16:00,
2013-03-16 17:21:00,44.4,33.8,29.36,NNW,334,8.0,12.0,66,0.00,SCT,,0.00,77.0,WeatherDisplay:10.37,2013-03-16 17:21:00,
2013-03-16 17:31:00,43.9,35.1,29.36,NNW,327,6.0,13.0,71,0.00,SCT,,0.00,100.0,WeatherDisplay:10.37,2013-03-16 17:31:00,
2013-03-16 17:41:00,43.9,33.3,29.37,NNW,337,6.0,13.0,66,0.00,SCT,,0.00,63.0,WeatherDisplay:10.37,2013-03-16 17:41:00,
2013-03-16 17:46:00,43.9,33.3,29.37,NNW,345,3.0,8.0,66,0.00,BKN,,0.00,49.0,WeatherDisplay:10.37,2013-03-16 17:46:00,
2013-03-16 17:51:00,43.8,33.2,29.37,NNW,345,3.0,8.0,66,0.00,BKN,,0.00,46.0,WeatherDisplay:10.37,2013-03-16 17:51:00,
2013-03-16 17:56:00,43.7,33.5,29.37,NNW,336,3.0,9.0,67,0.00,SCT,,0.00,47.0,WeatherDisplay:10.37,2013-03-16 17:56:00,
2013-03-16 18:01:00,43.6,33.4,29.37,NNW,334,2.0,7.0,67,0.00,SCT,,0.00,46.0,WeatherDisplay:10.37,2013-03-16 18:01:00,
2013-03-16 18:11:00,43.3,34.2,29.38,NNW,341,7.0,9.0,70,0.00,SCT,,0.00,32.0,WeatherDisplay:10.37,2013-03-16 18:11:00,
2013-03-16 18:16:00,43.0,34.5,29.38,NNW,338,5.0,8.0,72,0.00,SCT,,0.00,28.0,WeatherDisplay:10.37,2013-03-16 18:16:00,
2013-03-16 18:21:00,42.6,34.5,29.38,NNW,330,3.0,9.0,73,0.00,BKN,,0.00,18.0,WeatherDisplay:10.37,2013-03-16 18:21:00,
2013-03-16 18:31:00,41.9,34.6,29.38,NNW,334,3.0,6.0,75,0.00,BKN,,0.00,9.0,WeatherDisplay:10.37,2013-03-16 18:31:00,
2013-03-16 18:41:00,41.3,34.3,29.39,NNW,344,3.0,5.0,76,0.00,CLR,,0.00,5.0,WeatherDisplay:10.37,2013-03-16 18:41:00,
2013-03-16 18:46:00,41.0,34.0,29.39,NNW,344,2.0,5.0,76,0.00,OVC,,0.00,0.0,WeatherDisplay:10.37,2013-03-16 18:46:00,
2013-03-16 18:51:00,40.8,33.8,29.39,NNW,344,3.0,5.0,76,0.00,OVC,,0.00,0.0,WeatherDisplay:10.37,2013-03-16 18:51:00,
2013-03-16 19:01:00,40.1,33.5,29.39,NNW,344,2.0,5.0,77,0.00,CLR,,0.00,0.0,WeatherDisplay:10.37,2013-03-16 19:01:00,
2013-03-16 19:11:00,39.6,33.3,29.39,NNW,334,1.0,5.0,78,0.00,CLR,,0.00,0.0,WeatherDisplay:10.37,2013-03-16 19:11:00,
2013-03-16 19:16:00,39.4,32.8,29.39,NNW,334,2.0,4.0,77,0.00,CLR,,0.00,0.0,WeatherDisplay:10.37,2013-03-16 19:16:00,
2013-03-16 19:21:00,39.1,32.8,29.39,NNW,334,3.0,6.0,78,0.00,CLR,,0.00,0.0,WeatherDisplay:10.37,2013-03-16 19:21:00,
2013-03-16 19:26:00,39.0,33.0,29.39,NNW,333,2.0,7.0,79,0.00,CLR,,0.00,0.0,WeatherDisplay:10.37,2013-03-16 19:26:00,
2013-03-16 19:31:00,38.9,32.9,29.40,NNW,333,2.0,3.0,79,0.00,CLR,,0.00,0.0,WeatherDisplay:10.37,2013-03-16 19:31:00,
2013-03-16 19:41:00,38.6,32.6,29.40,NNW,333,1.0,4.0,79,0.00,CLR,,0.00,0.0,WeatherDisplay:10.37,2013-03-16 19:41:00,
2013-03-16 19:46:00,38.3,32.4,29.40,NNW,333,2.0,3.0,79,0.00,CLR,,0.00,0.0,WeatherDisplay:10.37,2013-03-16 19:46:00,
2013-03-16 19:51:00,38.1,32.5,29.40,NNW,333,1.0,4.0,80,0.00,CLR,,0.00,0.0,WeatherDisplay:10.37,2013-03-16 19:51:00,
2013-03-16 20:01:00,37.9,32.9,29.40,NNW,333,2.0,5.0,82,0.00,CLR,,0.00,0.0,WeatherDisplay:10.37,2013-03-16 20:01:00,
2013-03-16 20:11:00,37.6,32.9,29.40,NNW,333,2.0,4.0,83,0.00,CLR,,0.00,0.0,WeatherDisplay:10.37,2013-03-16 20:11:00,
2013-03-16 20:16:00,37.5,32.8,29.40,NNW,332,0.0,4.0,83,0.00,CLR,,0.00,0.0,WeatherDisplay:10.37,2013-03-16 20:16:00,
2013-03-16 20:21:00,37.2,32.5,29.40,NNW,332,1.0,3.0,83,0.00,CLR,,0.00,0.0,WeatherDisplay:10.37,2013-03-16 20:21:00,
2013-03-16 20:31:00,36.6,32.5,29.40,NNW,331,2.0,5.0,85,0.00,CLR,,0.00,0.0,WeatherDisplay:10.37,2013-03-16 20:31:00,
2013-03-16 20:41:00,36.3,32.5,29.40,NNW,331,2.0,5.0,86,0.00,CLR,,0.00,0.0,WeatherDisplay:10.37,2013-03-16 20:41:00,
2013-03-16 20:46:00,36.3,32.8,29.40,NNW,330,2.0,5.0,87,0.00,CLR,,0.00,0.0,WeatherDisplay:10.37,2013-03-16 20:46:00,
2013-03-16 20:51:00,36.2,32.4,29.40,NNW,330,3.0,4.0,86,0.00,CLR,,0.00,0.0,WeatherDisplay:10.37,2013-03-16 20:51:00,
2013-03-16 21:06:00,36.0,32.5,29.40,NNW,329,2.0,5.0,87,0.00,CLR,,0.00,0.0,WeatherDisplay:10.37,2013-03-16 21:06:00,
2013-03-16 21:11:00,36.0,32.5,29.40,NNW,329,2.0,5.0,87,0.00,CLR,,0.00,0.0,WeatherDisplay:10.37,2013-03-16 21:11:00,
2013-03-16 21:16:00,36.0,32.5,29.40,NNW,329,1.0,4.0,87,0.00,CLR,,0.00,0.0,WeatherDisplay:10.37,2013-03-16 21:16:00,
2013-03-16 21:22:00,36.0,32.5,29.40,NNW,328,3.0,5.0,87,0.00,CLR,,0.00,0.0,WeatherDisplay:10.37,2013-03-16 21:22:00,
2013-03-16 21:36:00,35.9,32.4,29.40,NW,326,3.0,5.0,87,0.00,CLR,,0.00,0.0,WeatherDisplay:10.37,2013-03-16 21:36:00,
2013-03-16 21:41:00,35.9,32.4,29.40,NW,325,3.0,5.0,87,0.00,CLR,,0.00,0.0,WeatherDisplay:10.37,2013-03-16 21:41:00,
2013-03-16 21:46:00,36.0,32.5,29.40,NW,321,3.0,6.0,87,0.00,CLR,,0.00,0.0,WeatherDisplay:10.37,2013-03-16 21:46:00,
2013-03-16 21:56:00,36.2,32.7,29.39,WNW,291,5.0,7.0,87,0.00,CLR,,0.00,0.0,WeatherDisplay:10.37,2013-03-16 21:56:00,
2013-03-16 22:01:00,36.4,32.6,29.39,West,281,3.0,6.0,86,0.00,CLR,,0.00,0.0,WeatherDisplay:10.37,2013-03-16 22:01:00,
2013-03-16 22:11:00,36.4,32.6,29.40,West,281,3.0,6.0,86,0.00,CLR,,0.00,0.0,WeatherDisplay:10.37,2013-03-16 22:11:00,
2013-03-16 22:21:00,36.3,32.5,29.39,West,280,3.0,5.0,86,0.00,CLR,,0.00,0.0,WeatherDisplay:10.37,2013-03-16 22:21:00,
2013-03-16 22:36:00,36.2,32.4,29.39,West,279,3.0,6.0,86,0.00,CLR,,0.00,0.0,WeatherDisplay:10.37,2013-03-16 22:36:00,
2013-03-16 22:46:00,36.4,32.6,29.39,West,279,2.0,6.0,86,0.00,CLR,,0.00,0.0,WeatherDisplay:10.37,2013-03-16 22:46:00,
2013-03-16 22:56:00,36.5,32.4,29.39,West,279,5.0,6.0,85,0.00,CLR,,0.00,0.0,WeatherDisplay:10.37,2013-03-16 22:56:00,
2013-03-16 23:01:00,36.5,32.5,29.39,West,278,3.0,7.0,85,0.00,CLR,,0.00,0.0,WeatherDisplay:10.37,2013-03-16 23:01:00,
2013-03-16 23:11:00,36.6,32.5,29.39,West,277,3.0,6.0,85,0.00,CLR,,0.00,0.0,WeatherDisplay:10.37,2013-03-16 23:11:00,
2013-03-16 23:46:00,35.3,31.8,29.38,West,267,5.0,7.0,87,0.00,CLR,,0.00,0.0,WeatherDisplay:10.37,2013-03-16 23:46:00,
2013-03-16 23:51:00,35.4,32.0,29.38,West,267,3.0,7.0,87,0.00,CLR,,0.00,0.0,WeatherDisplay:10.37,2013-03-16 23:51:00,
2013-03-16 23:56:00,35.6,32.1,29.38,West,266,5.0,9.0,87,0.00,CLR,,0.00,0.0,WeatherDisplay:10.37,2013-03-16 23:56:00,